Time,TemperatureF,DewpointF,PressureIn,WindDirection,WindDirectionDegrees,WindSpeedMPH,WindSpeedGustMPH,Humidity,HourlyPrecipIn,Conditions,Clouds,dailyrainin,SolarRadiationWatts/m^2,SoftwareType,DateUTC
2013-08-07 01:00:00,66.0,64.0,-100.00,SSE,157,4.0,-999.0,93,0.32,,,-99.99,0.000000,,2013-08-07 06:00:00,
2013-08-07 01:43:00,66.0,64.0,-100.00,SSE,157,4.0,-999.0,93,0.32,,,-99.99,0.000000,,2013-08-07 06:43:00,
2013-08-07 01:52:00,66.0,64.0,-100.00,SSE,157,4.0,-999.0,93,0.32,,,-99.99,0.000000,,2013-08-07 06:52:00,
2013-08-07 02:00:00,62.0,61.0,-100.00,NNW,337,9.0,-999.0,95,0.21,,,-99.99,0.000000,,2013-08-07 07:00:00,
2013-08-07 02:43:00,62.0,61.0,-100.00,NNW,337,9.0,-999.0,95,0.21,,,-99.99,0.000000,,2013-08-07 07:43:00,
2013-08-07 02:52:00,62.0,61.0,-100.00,NNW,337,9.0,-999.0,95,0.21,,,-99.99,0.000000,,2013-08-07 07:52:00,
2013-08-07 03:00:00,61.0,59.0,-100.00,NW,315,2.0,-999.0,95,0.09,,,-99.99,0.000000,,2013-08-07 08:00:00,
2013-08-07 03:44:00,61.0,59.0,-100.00,NW,315,2.0,-999.0,95,0.09,,,-99.99,0.000000,,2013-08-07 08:44:00,
2013-08-07 03:53:00,61.0,59.0,-100.00,NW,315,2.0,-999.0,95,0.09,,,-99.99,0.000000,,2013-08-07 08:53:00,
2013-08-07 04:00:00,60.0,59.0,-100.00,WSW,247,1.0,-999.0,96,-99.99,,,-99.99,0.000000,,2013-08-07 09:00:00,
2013-08-07 04:32:00,60.0,59.0,-100.00,WSW,247,1.0,-999.0,96,-99.99,,,-99.99,0.000000,,2013-08-07 09:32:00,
2013-08-07 04:43:00,60.0,59.0,-100.00,WSW,247,1.0,-999.0,96,-99.99,,,-99.99,0.000000,,2013-08-07 09:43:00,
2013-08-07 04:54:00,60.0,59.0,-100.00,WSW,247,1.0,-999.0,96,-99.99,,,-99.99,0.000000,,2013-08-07 09:54:00,
2013-08-07 05:00:00,59.0,58.0,-100.00,West,270,1.0,-999.0,96,-99.99,,,-99.99,0.000000,,2013-08-07 10:00:00,
2013-08-07 05:32:00,59.0,58.0,-100.00,West,270,1.0,-999.0,96,-99.99,,,-99.99,0.000000,,2013-08-07 10:32:00,
2013-08-07 05:43:00,59.0,58.0,-100.00,West,270,1.0,-999.0,96,-99.99,,,-99.99,0.000000,,2013-08-07 10:43:00,
2013-08-07 05:52:00,59.0,58.0,-100.00,West,270,1.0,-999.0,96,-99.99,,,-99.99,0.000000,,2013-08-07 10:52:00,
2013-08-07 06:00:00,59.0,59.0,-100.00,WSW,247,3.0,-999.0,96,-99.99,,,-99.99,2.320000,,2013-08-07 11:00:00,
2013-08-07 06:43:00,59.0,59.0,-100.00,WSW,247,3.0,-999.0,96,-99.99,,,-99.99,2.320000,,2013-08-07 11:43:00,
2013-08-07 06:53:00,59.0,59.0,-100.00,WSW,247,3.0,-999.0,96,-99.99,,,-99.99,2.320000,,2013-08-07 11:53:00,
2013-08-07 07:00:00,61.0,60.0,-100.00,WNW,292,3.0,-999.0,96,-99.99,,,-99.99,48.720001,,2013-08-07 12:00:00,
2013-08-07 07:43:00,61.0,60.0,-100.00,WNW,292,3.0,-999.0,96,-99.99,,,-99.99,48.720001,,2013-08-07 12:43:00,
2013-08-07 07:52:00,61.0,60.0,-100.00,WNW,292,3.0,-999.0,96,-99.99,,,-99.99,48.720001,,2013-08-07 12:52:00,
2013-08-07 08:00:00,62.0,60.0,-100.00,WNW,292,3.0,-999.0,95,-99.99,,,-99.99,117.160004,,2013-08-07 13:00:00,
2013-08-07 08:32:00,62.0,60.0,-100.00,WNW,292,3.0,-999.0,95,-99.99,,,-99.99,117.160004,,2013-08-07 13:32:00,
2013-08-07 08:44:00,62.0,60.0,-100.00,WNW,292,3.0,-999.0,95,-99.99,,,-99.99,117.160004,,2013-08-07 13:44:00,
2013-08-07 08:53:00,62.0,60.0,-100.00,WNW,292,3.0,-999.0,95,-99.99,,,-99.99,117.160004,,2013-08-07 13:53:00,
2013-08-07 09:00:00,61.0,60.0,-100.00,WNW,292,4.0,-999.0,95,-99.99,,,-99.99,208.800003,,2013-08-07 14:00:00,
2013-08-07 09:33:00,61.0,60.0,-100.00,WNW,292,4.0,-999.0,95,-99.99,,,-99.99,208.800003,,2013-08-07 14:33:00,
2013-08-07 09:43:00,61.0,60.0,-100.00,WNW,292,4.0,-999.0,95,-99.99,,,-99.99,208.800003,,2013-08-07 14:43:00,
2013-08-07 09:52:00,61.0,60.0,-100.00,WNW,292,4.0,-999.0,95,-99.99,,,-99.99,208.800003,,2013-08-07 14:52:00,
2013-08-07 10:00:00,64.0,61.0,-100.00,WNW,292,4.0,-999.0,90,-99.99,,,-99.99,401.359985,,2013-08-07 15:00:00,
2013-08-07 10:43:00,64.0,61.0,-100.00,WNW,292,4.0,-999.0,90,-99.99,,,-99.99,401.359985,,2013-08-07 15:43:00,
2013-08-07 10:53:00,64.0,61.0,-100.00,WNW,292,4.0,-999.0,90,-99.99,,,-99.99,401.359985,,2013-08-07 15:53:00,
2013-08-07 11:00:00,67.0,62.0,-100.00,NNW,337,5.0,-999.0,85,-99.99,,,-99.99,448.920013,,2013-08-07 16:00:00,
2013-08-07 11:33:00,67.0,62.0,-100.00,NNW,337,5.0,-999.0,85,-99.99,,,-99.99,448.920013,,2013-08-07 16:33:00,
2013-08-07 11:43:00,67.0,62.0,-100.00,NNW,337,5.0,-999.0,85,-99.99,,,-99.99,448.920013,,2013-08-07 16:43:00,
2013-08-07 11:53:00,67.0,62.0,-100.00,NNW,337,5.0,-999.0,85,-99.99,,,-99.99,448.920013,,2013-08-07 16:53:00,
2013-08-07 12:00:00,67.0,61.0,-100.00,NNW,337,5.0,-999.0,81,-99.99,,,-99.99,350.320007,,2013-08-07 17:00:00,
2013-08-07 12:43:00,67.0,61.0,-100.00,NNW,337,5.0,-999.0,81,-99.99,,,-99.99,350.320007,,2013-08-07 17:43:00,
2013-08-07 12:52:00,67.0,61.0,-100.00,NNW,337,5.0,-999.0,81,-99.99,,,-99.99,350.320007,,2013-08-07 17:52:00,
2013-08-07 13:00:00,69.0,61.0,-100.00,NNW,337,4.0,-999.0,75,-99.99,,,-99.99,599.719971,,2013-08-07 18:00:00,
2013-08-07 13:32:00,69.0,61.0,-100.00,NNW,337,4.0,-999.0,75,-99.99,,,-99.99,599.719971,,2013-08-07 18:32:00,
2013-08-07 13:43:00,69.0,61.0,-100.00,NNW,337,4.0,-999.0,75,-99.99,,,-99.99,599.719971,,2013-08-07 18:43:00,
2013-08-07 13:52:00,69.0,61.0,-100.00,NNW,337,4.0,-999.0,75,-99.99,,,-99.99,599.719971,,2013-08-07 18:52:00,
2013-08-07 14:00:00,71.0,61.0,-100.00,North,0,4.0,-999.0,70,-99.99,,,-99.99,658.880005,,2013-08-07 19:00:00,
2013-08-07 14:44:00,71.0,61.0,-100.00,North,0,4.0,-999.0,70,-99.99,,,-99.99,658.880005,,2013-08-07 19:44:00,
2013-08-07 14:53:00,71.0,61.0,-100.00,North,0,4.0,-999.0,70,-99.99,,,-99.99,658.880005,,2013-08-07 19:53:00,
2013-08-07 15:00:00,71.0,60.0,-100.00,NNW,337,2.0,-999.0,69,-99.99,,,-99.99,497.640015,,2013-08-07 20:00:00,
2013-08-07 15:33:00,71.0,60.0,-100.00,NNW,337,2.0,-999.0,69,-99.99,,,-99.99,497.640015,,2013-08-07 20:33:00,
2013-08-07 15:43:00,71.0,60.0,-100.00,NNW,337,2.0,-999.0,69,-99.99,,,-99.99,497.640015,,2013-08-07 20:43:00,
2013-08-07 15:52:00,71.0,60.0,-100.00,NNW,337,2.0,-999.0,69,-99.99,,,-99.99,497.640015,,2013-08-07 20:52:00,
2013-08-07 16:00:00,73.0,60.0,-100.00,NNW,337,3.0,-999.0,63,-99.99,,,-99.99,676.280029,,2013-08-07 21:00:00,
2013-08-07 16:43:00,73.0,60.0,-100.00,NNW,337,3.0,-999.0,63,-99.99,,,-99.99,676.280029,,2013-08-07 21:43:00,
2013-08-07 16:52:00,73.0,60.0,-100.00,NNW,337,3.0,-999.0,63,-99.99,,,-99.99,676.280029,,2013-08-07 21:52:00,
2013-08-07 17:00:00,73.0,59.0,-100.00,North,0,4.0,-999.0,61,-99.99,,,-99.99,561.440002,,2013-08-07 22:00:00,
2013-08-07 17:32:00,73.0,59.0,-100.00,North,0,4.0,-999.0,61,-99.99,,,-99.99,561.440002,,2013-08-07 22:32:00,
2013-08-07 17:43:00,73.0,59.0,-100.00,North,0,4.0,-999.0,61,-99.99,,,-99.99,561.440002,,2013-08-07 22:43:00,
2013-08-07 17:52:00,73.0,59.0,-100.00,North,0,4.0,-999.0,61,-99.99,,,-99.99,561.440002,,2013-08-07 22:52:00,
2013-08-07 18:00:00,73.0,59.0,-100.00,North,0,3.0,-999.0,62,-99.99,,,-99.99,361.920013,,2013-08-07 23:00:00,
2013-08-07 18:32:00,73.0,59.0,-100.00,North,0,3.0,-999.0,62,-99.99,,,-99.99,361.920013,,2013-08-07 23:32:00,
2013-08-07 18:43:00,73.0,59.0,-100.00,North,0,3.0,-999.0,62,-99.99,,,-99.99,361.920013,,2013-08-07 23:43:00,
2013-08-07 18:52:00,73.0,59.0,-100.00,North,0,3.0,-999.0,62,-99.99,,,-99.99,361.920013,,2013-08-07 23:52:00,
2013-08-07 19:00:00,72.0,58.0,-100.00,North,0,2.0,-999.0,63,-99.99,,,-99.99,207.639999,,2013-08-08 00:00:00,
2013-08-07 19:43:00,72.0,58.0,-100.00,North,0,2.0,-999.0,63,-99.99,,,-99.99,207.639999,,2013-08-08 00:43:00,
2013-08-07 19:52:00,72.0,58.0,-100.00,North,0,2.0,-999.0,63,-99.99,,,-99.99,207.639999,,2013-08-08 00:52:00,
2013-08-07 20:00:00,67.0,59.0,-100.00,NNW,337,1.0,-999.0,76,-99.99,,,-99.99,37.119999,,2013-08-08 01:00:00,
2013-08-07 20:32:00,67.0,59.0,-100.00,NNW,337,1.0,-999.0,76,-99.99,,,-99.99,37.119999,,2013-08-08 01:32:00,
2013-08-07 20:43:00,67.0,59.0,-100.00,NNW,337,1.0,-999.0,76,-99.99,,,-99.99,37.119999,,2013-08-08 01:43:00,
2013-08-07 20:52:00,67.0,59.0,-100.00,NNW,337,1.0,-999.0,76,-99.99,,,-99.99,37.119999,,2013-08-08 01:52:00,
2013-08-07 21:00:00,64.0,60.0,-100.00,ESE,112,1.0,-999.0,85,-99.99,,,-99.99,1.160000,,2013-08-08 02:00:00,
2013-08-07 21:32:00,64.0,60.0,-100.00,ESE,112,1.0,-999.0,85,-99.99,,,-99.99,1.160000,,2013-08-08 02:32:00,
2013-08-07 21:43:00,64.0,60.0,-100.00,ESE,112,1.0,-999.0,85,-99.99,,,-99.99,1.160000,,2013-08-08 02:43:00,
2013-08-07 21:52:00,64.0,60.0,-100.00,ESE,112,1.0,-999.0,85,-99.99,,,-99.99,1.160000,,2013-08-08 02:52:00,
2013-08-07 22:00:00,63.0,60.0,-100.00,ENE,67,0.0,-999.0,89,-99.99,,,-99.99,0.000000,,2013-08-08 03:00:00,
2013-08-07 22:43:00,63.0,60.0,-100.00,ENE,67,0.0,-999.0,89,-99.99,,,-99.99,0.000000,,2013-08-08 03:43:00,
2013-08-07 22:52:00,63.0,60.0,-100.00,ENE,67,0.0,-999.0,89,-99.99,,,-99.99,0.000000,,2013-08-08 03:52:00,
2013-08-07 23:00:00,59.0,57.0,-100.00,SSE,157,0.0,-999.0,92,-99.99,,,-99.99,0.000000,,2013-08-08 04:00:00,
2013-08-07 23:44:00,59.0,57.0,-100.00,SSE,157,0.0,-999.0,92,-99.99,,,-99.99,0.000000,,2013-08-08 04:44:00,
2013-08-07 23:53:00,59.0,57.0,-100.00,SSE,157,0.0,-999.0,92,-99.99,,,-99.99,0.000000,,2013-08-08 04:53:00,